SSTL S1-4 (43618 NORAD) Tracking and Keplerian Element Data

This shows tracking and keplerian element data for the satellite.

Feedback or suggestion? Click here.




ElementValue
Catalog43618
NameSSTL S1-4
Epoch Orbit415
Epoch Day287.5125919
Epoch Year2018
RAAN177.2758
Inclination97.8174
Eccentricity0.0014427
Argument of Perigee150.0966
Mean Anonmoly210.1092
Mean Motion14.94855723
Decay Rate7.4E-07
L11 43618U 18071A 18287.51259190 .00000074 00000-0 12155-4 0 9996
L22 43618 97.8174 177.2758 0014427 150.0966 210.1092 14.94855723 4155

Live tracking and technical data element details for SSTL S1-4 (NORAD 43618). SSTL S1-4 can be tracked NOW for your location showing map with azimuth and elevation plus other details from your city location.

Track the satellite on the map from your city or location and see movement details for azimuth, elevation, latitude, longitude, range, height, and movement on the map or in text.







IsCatalogInMostPopularTable: catalog: 43618, numindb: 19
Update: records affected: 1



GetName: 43618 SSTL S1-4

Hit Count: updated at: Sat, 17 Nov 2018 02:04:50 GMT